Regional Weather Roundup
Issued by NWS

Home | Current Version | Previous Version | Text Only | Print | Product List | Glossary Off
Versions: 1 2 3 4 5 6 7 8 9 10 11 12 13 14 15 16 17 18 19 20 21 22 23 24 25 26 27 28 29 30 31 32 33 34 35 36 37 38 39 40 41 42 43 44 45 46 47 48 49 50

000
ASUS43 KFSD 230910
RWRSD

WEATHER ROUNDUP FOR SOUTH DAKOTA
NATIONAL WEATHER SERVICE SIOUX FALLS SD
300 AM CST FRI FEB 23 2018

NOTE: "FAIR" INDICATES FEW OR NO CLOUDS BELOW 12,000 FEET WITH NO
SIGNIFICANT WEATHER AND/OR OBSTRUCTIONS TO VISIBILITY.


SDZ001>005-009-010-012>017-231000-
NORTHWEST AND NORTH CENTRAL SOUTH DAKOTA

CITY           SKY/WX    TMP DP  RH WIND       PRES   REMARKS
BUFFALO          N/A     -1  -8  72 W12       30.06F WCI -18
FAITH            N/A      2  -1  88 NW14      30.14R WCI -16
MOBRIDGE       MOCLDY    13   9  84 NW8       30.13R WCI   2
$$

SDZ012>016-024>037-041>051-057-063-072>074-231000-
SOUTHWEST AND SOUTH CENTRAL SOUTH DAKOTA

CITY           SKY/WX    TMP DP  RH WIND       PRES   REMARKS
RAPID CTY ARPT CLEAR     -1  -6  79 NW8       30.12R WCI -15
PIERRE         PTCLDY     8   6  92 NW13      30.16S WCI  -8
CUSTER         PTCLDY     3  -4  72 NW5       29.97S WCI  -6
ELLSWORTH AFB  CLEAR      6  -2  70 N6        30.11R WCI  -5
PHILIP         MOCLDY     0  -3  87 W7        30.18R WCI -13
PINE RIDGE     CLEAR      2  -1  88 W3        30.14S
SPEARFISH        N/A      3  -6  66 W7        30.10S WCI  -9
WINNER         CLOUDY    17  14  88 NW10      30.16R WCI   5
$$

SDZ004>011-016>023-039-040-231000-
NORTHEAST SOUTH DAKOTA

CITY           SKY/WX    TMP DP  RH WIND       PRES   REMARKS
ABERDEEN       CLOUDY    16  16 100 NW6       30.13R FOG     WCI   7
WATERTOWN      CLOUDY    16  16 100 NW6       30.06S FOG     WCI   7
BROOKINGS      CLOUDY    14  11  87 W9        30.09R FOG     WCI   2
SISSETON         N/A     17  16  95 NW6       30.09F WCI   9
$$

SDZ017-020-022-023-036>040-048>070-231000-
SOUTHEAST SOUTH DAKOTA

CITY           SKY/WX    TMP DP  RH WIND       PRES   REMARKS
SIOUX FALLS    CLOUDY    19  18  95 W6        30.11F FOG     WCI  11
HURON          MOCLDY     6   4  91 W7        30.13S FOG     WCI  -6
CHAMBERLAIN    FOG       16  15  96 W3        30.16R VSB 3/4
MITCHELL       FOG        8   7  95 W6        30.15R VSB 1/2 WCI  -2
YANKTON        CLOUDY    16  14  92 W7        30.15R FOG     WCI   6
$$

ABBREVIATIONS USED IN REMARKS
   TC - TEMPERATURE IN CELSIUS
  WCI - WIND CHILL INDEX
   HX - HEAT INDEX
  VSB - VISIBILITY




USA.gov is the U.S. government's official web portal to all federal, state and local government web resources and services.